Location: Hannover
(52.3723°N, 9.7339°E)
Time: 14:47:42
(UTC+02:00)

ISS - Pass Details

Date: 23 March 2017
Orbit: 399 x 409 km, 51.6° (Epoch: 30 March)

Event Time Altitude Azimuth Distance (km) Brightness Sun altitude
Exits shadow 04:29:47 11° 173° (S) 1,428 -1.2 -16.6°
Drops below altitude 10° 04:29:56 10° 171° (S) 1,471 -1.2 -16.6°
Sets 04:32:27 0° 151° (SSE) 2,329 0.1 -16.2°
